[[{"header":{"parameterUnit":"m.s-1","parameterCategory":1,"la1":30.2991,"la2":30.254,"lo1":-89.0895,"lo2":-89.0444,"dy":0.0017,"dx":0.0017,"nx":28,"ny":28,"refTime":"2023-08-30T21:00:00:Z","depth":0,"parameterNumber":2,"parameterNumberName":"U-component_of_WINDS"},"data":[0,0,0,0,0,0,0,0,0,0,0,0,0,0,0,0,0,0,0,0,0,0,0,0,0,0,0,0,0,0,0,0,0,0,0,0,0,0,0,0,0,0,0,0,0,0,0,0,0,0,0,0,0,0,0,0,0,0,-0.6796,-0.6796,0,-0.679,-0.679,-0.679,-0.6767,-0.6767,-0.6766,-0.6766,-0.676,-0.676,-0.676,0,0,0,0,0,0,0,0,0,0,0,0,0,-0.6792,-0.6792,-0.6797,-0.6796,-0.6796,-0.679,-0.679,-0.679,-0.6767,-0.6767,-0.6766,-0.6766,-0.676,-0.676,-0.676,0,0,0,0,0,0,0,0,0,0,0,0,0,-0.6791,-0.6792,-0.6797,-0.6784,-0.6783,-0.679,-0.679,-0.679,-0.6768,-0.6767,-0.6766,-0.6765,-0.676,-0.676,-0.6761,-0.6778,0,0,-0.6762,-0.6762,0,0,0,0,0,0,0,0,-0.6791,-0.6791,-0.6786,-0.6785,-0.6784,-0.6779,-0.6786,-0.6786,-0.6768,-0.6774,-0.6766,-0.6765,-0.6767,-0.6767,-0.6767,-0.6778,-0.6778,-0.6762,-0.6762,-0.6762,-0.6763,0,0,0,0,0,0,0,-0.6791,-0.6791,-0.6794,-0.6786,-0.6785,-0.678,-0.6779,-0.6786,-0.6774,-0.6773,-0.6771,-0.6771,-0.6766,-0.6767,-0.6767,-0.6778,-0.6762,-0.6762,-0.6763,-0.6763,-0.6805,-0.6805,0,0,0,0,0,0,-0.6793,-0.6791,-0.6794,-0.6794,-0.6786,-0.6781,-0.678,-0.6781,-0.6774,-0.6773,-0.6771,-0.677,-0.6766,-0.6766,-0.6766,-0.6787,-0.6762,-0.6763,-0.6763,-0.6804,-0.6805,-0.6806,0,0,0,0,0,0,-0.6793,-0.6793,-0.6794,-0.6792,-0.6792,-0.6782,-0.6784,-0.6781,-0.6782,-0.6773,-0.6771,-0.6774,-0.6766,-0.6766,-0.6776,-0.6787,-0.6763,-0.6763,-0.6803,-0.6804,-0.6805,-0.6829,0,0,0,0,0,0,-0.6792,-0.6793,-0.6799,-0.6792,-0.6792,-0.6803,-0.6784,-0.6782,-0.6783,-0.678,-0.6775,-0.6773,-0.6765,-0.6775,-0.6776,-0.6787,-0.6764,-0.6802,-0.6803,-0.6805,-0.6827,-0.6831,-0.6834,0,0,0,0,0,-0.6792,-0.6806,-0.68,-0.68,-0.6799,-0.6804,-0.6804,-0.6794,-0.6784,-0.679,-0.6785,-0.6774,-0.6786,-0.6776,-0.6777,-0.6788,-0.6801,-0.6803,-0.6805,-0.6826,-0.683,-0.6834,0,0,0,0,0,0,-0.6814,-0.6805,-0.6798,-0.6809,-0.6808,-0.68,-0.6808,-0.6799,-0.68,-0.6798,-0.6785,-0.6784,-0.6796,-0.6794,-0.6783,-0.6806,-0.6792,-0.6794,-0.6807,-0.6812,-0.6815,-0.6815,-0.6764,0,0,0,0,0,-0.6821,-0.6825,-0.6816,-0.6828,-0.6827,-0.6818,-0.6819,-0.6812,-0.681,-0.6809,-0.6804,-0.6803,-0.6806,-0.6809,-0.6812,-0.6827,-0.6826,-0.6836,-0.6839,-0.6842,-0.6844,-0.6853,-0.6857,-0.6812,-0.6812,-0.6812,0,0,-0.6834,-0.6829,-0.6832,-0.6832,-0.683,-0.6835,-0.6817,-0.6823,-0.6827,-0.681,-0.6819,-0.6816,-0.6814,-0.6827,-0.6832,-0.6825,-0.6856,-0.6844,-0.6847,-0.6847,-0.6855,-0.6859,-0.6863,-0.6813,-0.6813,-0.6813,0,0,-0.686,-0.6856,-0.6866,-0.6864,-0.6861,-0.6855,-0.6857,-0.6852,-0.6849,-0.6858,-0.6845,-0.685,-0.6856,-0.6856,-0.6856,-0.6884,-0.6874,-0.6885,-0.6903,-0.6912,-0.6915,-0.6919,-0.6929,-0.6933,-0.6887,-0.6887,-0.6887,0,-0.6876,-0.6883,-0.6872,-0.6879,-0.688,-0.6865,-0.6874,-0.6874,-0.6872,-0.6873,-0.6865,-0.6873,-0.687,-0.6883,-0.689,-0.6891,-0.6894,-0.6885,-0.6916,-0.6919,-0.6922,-0.6931,-0.6935,-0.6889,-0.6889,-0.6888,-0.6888,0,-0.6903,-0.6908,-0.6916,-0.6915,-0.6917,-0.6925,-0.6917,-0.692,-0.6913,-0.6908,-0.6918,-0.6915,-0.6917,-0.692,-0.6913,-0.6932,-0.6928,-0.6918,-0.6903,-0.6927,-0.6936,-0.694,-0.6891,-0.689,-0.689,-0.6889,0,0,-0.6941,-0.6935,-0.6938,-0.6938,-0.6934,-0.6938,-0.6947,-0.6949,-0.6952,-0.6952,-0.6959,-0.6966,-0.6957,-0.6958,-0.6951,-0.6958,-0.6981,-0.6948,-0.6947,-0.6954,-0.7003,-0.701,-0.7015,-0.6975,-0.6976,-0.6976,-0.7004,0,-0.6966,-0.6979,-0.6971,-0.6986,-0.6991,-0.6978,-0.6985,-0.6984,-0.698,-0.6985,-0.6981,-0.6985,-0.6973,-0.6974,-0.6981,-0.6977,-0.6991,-0.6975,-0.6982,-0.6982,-0.6982,-0.7019,-0.7027,-0.7052,-0.7007,-0.7007,-0.7008,0,-0.6996,-0.6997,-0.7013,-0.701,-0.7011,-0.7018,-0.702,-0.7024,-0.7023,-0.702,-0.7022,-0.7013,-0.7022,-0.7008,-0.7021,-0.701,-0.7013,-0.7011,-0.7012,-0.7012,-0.6996,-0.702,-0.706,-0.7064,-0.7013,-0.7013,-0.7012,0,-0.7023,-0.7028,-0.7039,-0.7039,-0.7035,-0.704,-0.7039,-0.7038,-0.704,-0.7042,-0.7043,-0.7047,-0.7048,-0.7052,-0.7045,-0.7035,-0.7058,-0.7043,-0.7056,-0.7056,-0.7061,-0.7061,-0.7102,-0.7063,-0.7063,-0.7063,-0.7063,0,-0.7051,-0.7061,-0.7051,-0.7057,-0.7068,-0.7059,-0.7071,-0.7068,-0.7067,-0.7073,-0.7063,-0.7069,-0.7059,-0.7065,-0.706,-0.7071,-0.7072,-0.707,-0.7068,-0.7071,-0.7071,-0.7072,-0.707,-0.7064,-0.7064,-0.7064,-0.7064,0,-0.7082,-0.7075,-0.7086,-0.7082,-0.7081,-0.7089,-0.7086,-0.7092,-0.7088,-0.7097,-0.7098,-0.7092,-0.7098,-0.7091,-0.7097,-0.7094,-0.7109,-0.7105,-0.7109,-0.7108,-0.7121,-0.712,-0.7164,-0.717,-0.7128,-0.7128,-0.7128,0,-0.71,-0.7107,-0.7104,-0.7108,-0.7107,-0.7113,-0.7115,-0.7107,-0.711,-0.7111,-0.7117,-0.7122,-0.7126,-0.7136,-0.7133,-0.7137,-0.7133,-0.7148,-0.7133,-0.7136,-0.7133,-0.7133,-0.7134,-0.7151,-0.7152,-0.7152,-0.7152,0,-0.7133,-0.713,-0.7133,-0.7137,-0.714,-0.7142,-0.7143,-0.7147,-0.7139,-0.7143,-0.7149,-0.7152,-0.7158,-0.7164,-0.7167,-0.7167,-0.7158,-0.7157,-0.716,-0.7163,-0.7165,-0.7164,-0.7117,-0.7156,-0.7156,-0.7155,-0.7155,-0.7155,-0.7158,-0.7164,-0.7163,-0.7168,-0.7169,-0.7171,-0.7176,-0.7174,-0.7179,-0.7183,-0.7178,-0.7186,-0.7186,-0.719,-0.7191,-0.7197,-0.7191,-0.7195,-0.7197,-0.7198,-0.72,-0.7164,-0.7198,-0.7198,-0.7198,-0.7198,-0.7198,0,-0.719,-0.7189,-0.7194,-0.7197,-0.7201,-0.7193,-0.7195,-0.7199,-0.7206,-0.7207,-0.7211,-0.7219,-0.7224,-0.7222,-0.7227,-0.7233,-0.7229,-0.7234,-0.7234,-0.7234,-0.7205,-0.7202,-0.7237,-0.7237,-0.7237,-0.7237,-0.7237,-0.7237,-0.7208,-0.7218,-0.7215,-0.7227,-0.7226,-0.7233,-0.7235,-0.7237,-0.7238,-0.7247,-0.7252,-0.725,-0.725,-0.7255,-0.7261,-0.726,-0.7262,-0.7269,-0.7267,-0.724,-0.7236,-0.7232,-0.7229,-0.7269,-0.727,-0.7295,-0.7295,-0.7295]},{"header":{"parameterUnit":"m.s-1","parameterCategory":1,"la1":30.2991,"la2":30.254,"lo1":-89.0895,"lo2":-89.0444,"dy":0.0017,"dx":0.0017,"nx":28,"ny":28,"refTime":"2023-08-30T21:00:00:Z","depth":0,"parameterNumber":3,"parameterNumberName":"V-component_of_WINDS"},"data":[0,0,0,0,0,0,0,0,0,0,0,0,0,0,0,0,0,0,0,0,0,0,0,0,0,0,0,0,0,0,0,0,0,0,0,0,0,0,0,0,0,0,0,0,0,0,0,0,0,0,0,0,0,0,0,0,0,0,1.7225,1.7227,0,1.739,1.7392,1.7394,1.7467,1.7467,1.7466,1.7466,1.7638,1.7643,1.7647,0,0,0,0,0,0,0,0,0,0,0,0,0,1.6976,1.698,1.7225,1.7227,1.7229,1.739,1.7392,1.7394,1.7467,1.7467,1.7466,1.7466,1.7636,1.7642,1.7648,0,0,0,0,0,0,0,0,0,0,0,0,0,1.7107,1.6982,1.7225,1.7285,1.7292,1.7389,1.7392,1.7395,1.7467,1.7467,1.7466,1.7466,1.7634,1.7641,1.7649,1.77,0,0,1.7671,1.7674,0,0,0,0,0,0,0,0,1.7099,1.7116,1.7274,1.7281,1.7289,1.7408,1.7367,1.7497,1.7467,1.74,1.7466,1.7466,1.7562,1.7575,1.7607,1.7708,1.7715,1.7671,1.7676,1.7679,1.7681,0,0,0,0,0,0,0,1.709,1.7109,1.7291,1.7276,1.7285,1.7304,1.7323,1.7392,1.7481,1.7406,1.7412,1.743,1.7566,1.76,1.7611,1.7718,1.7671,1.7677,1.7682,1.7685,1.7871,1.7871,0,0,0,0,0,0,1.7071,1.7101,1.7285,1.7296,1.7191,1.7309,1.733,1.737,1.7481,1.7497,1.743,1.7433,1.7587,1.7603,1.7618,1.7686,1.7679,1.7685,1.7689,1.787,1.7871,1.7871,0,0,0,0,0,0,1.7065,1.7087,1.7279,1.72,1.7226,1.7314,1.7358,1.7373,1.7407,1.7499,1.7515,1.7448,1.7588,1.7607,1.7679,1.7693,1.7689,1.7695,1.7869,1.787,1.7871,1.7822,0,0,0,0,0,0,1.7058,1.7084,1.7104,1.72,1.723,1.7336,1.7359,1.7377,1.7419,1.7424,1.752,1.7536,1.7589,1.7668,1.7686,1.7703,1.7701,1.7868,1.787,1.7871,1.7823,1.7821,1.782,0,0,0,0,0,1.7049,1.7084,1.7105,1.7126,1.7256,1.7337,1.7354,1.7414,1.742,1.7441,1.75,1.7533,1.7688,1.7674,1.7696,1.7715,1.7868,1.7869,1.7871,1.7823,1.7821,1.782,0,0,0,0,0,0,1.6988,1.7098,1.7122,1.7189,1.7253,1.7349,1.7377,1.741,1.7474,1.7476,1.7549,1.757,1.7635,1.7682,1.7665,1.7771,1.7781,1.7787,1.7738,1.7737,1.7735,1.7723,1.7707,0,0,0,0,0,1.6983,1.7038,1.7131,1.7181,1.7212,1.7289,1.7326,1.7367,1.7436,1.7464,1.7529,1.7596,1.766,1.7701,1.7765,1.7829,1.7852,1.7853,1.7851,1.785,1.7854,1.7893,1.7895,1.7876,1.7876,1.7876,0,0,1.6972,1.7038,1.7069,1.7171,1.7225,1.7282,1.7311,1.737,1.7413,1.7474,1.7545,1.7594,1.7674,1.7742,1.7776,1.7784,1.7864,1.7852,1.7849,1.7855,1.7895,1.7896,1.7898,1.7877,1.7877,1.7877,0,0,1.6982,1.7037,1.7085,1.7139,1.7221,1.7271,1.7283,1.7374,1.7409,1.7481,1.7528,1.7581,1.7689,1.7745,1.7787,1.7817,1.785,1.7836,1.7828,1.7865,1.7867,1.7869,1.788,1.7884,1.784,1.784,1.784,0,1.6958,1.7045,1.7106,1.7163,1.7206,1.7262,1.7312,1.7362,1.746,1.749,1.7497,1.7634,1.7692,1.7775,1.7782,1.7814,1.783,1.7826,1.7861,1.7864,1.7866,1.7878,1.7883,1.7838,1.7838,1.7838,1.7838,0,1.7013,1.7072,1.7101,1.7194,1.7241,1.7294,1.7364,1.7405,1.7441,1.7491,1.7565,1.7636,1.7716,1.7738,1.7774,1.7826,1.7828,1.7847,1.7859,1.7865,1.7878,1.7883,1.7834,1.7835,1.7836,1.7836,0,0,1.699,1.7115,1.7125,1.7168,1.7262,1.731,1.7366,1.7442,1.7476,1.7542,1.7592,1.7682,1.77,1.7748,1.7791,1.7823,1.7844,1.7839,1.7842,1.7838,1.7907,1.7893,1.7897,1.7866,1.7867,1.7868,1.79,0,1.7013,1.7114,1.7171,1.7249,1.7306,1.7359,1.7408,1.7471,1.752,1.7575,1.763,1.7693,1.7711,1.7741,1.7775,1.7834,1.7859,1.7832,1.7914,1.7916,1.7893,1.7904,1.7889,1.7916,1.7906,1.7907,1.7907,0,1.7054,1.7118,1.7201,1.7289,1.7315,1.7357,1.7433,1.7485,1.7558,1.7591,1.7644,1.7687,1.7749,1.7755,1.7842,1.7823,1.786,1.7894,1.7897,1.7908,1.7913,1.7916,1.7927,1.7931,1.7915,1.7915,1.7914,0,1.703,1.7137,1.7201,1.7236,1.734,1.7369,1.7414,1.7487,1.7529,1.7595,1.7624,1.7697,1.7737,1.7793,1.7854,1.7853,1.7936,1.7947,1.7966,1.7965,1.7983,1.7981,1.8,1.8004,1.8004,1.8004,1.8003,0,1.7051,1.71,1.7192,1.7231,1.7288,1.7353,1.7408,1.7458,1.7522,1.7573,1.7624,1.7671,1.7748,1.7805,1.7854,1.792,1.7937,1.7967,1.7979,1.7963,1.7959,1.7989,1.7989,1.8005,1.8004,1.8004,1.8004,0,1.7034,1.7097,1.7171,1.7263,1.7287,1.7325,1.7405,1.7446,1.7496,1.756,1.7579,1.7659,1.7729,1.7795,1.7888,1.7921,1.7987,1.8003,1.7962,1.7969,1.7985,1.7983,1.8026,1.8035,1.803,1.803,1.803,0,1.7043,1.7083,1.7178,1.7215,1.7259,1.7318,1.7362,1.7428,1.7471,1.7558,1.7589,1.7662,1.7724,1.7833,1.79,1.7972,1.7991,1.8,1.8002,1.7984,1.7993,1.799,1.7995,1.7999,1.7999,1.7999,1.7999,0,1.7054,1.7083,1.7144,1.7215,1.7266,1.7325,1.7387,1.7415,1.7493,1.7539,1.761,1.7658,1.7753,1.7826,1.7905,1.7953,1.799,1.7997,1.8006,1.799,1.7966,1.798,1.7959,1.7996,1.7997,1.7997,1.7997,1.7997,1.7052,1.7089,1.7163,1.7229,1.7281,1.7338,1.7381,1.7437,1.7497,1.7579,1.7614,1.7686,1.776,1.787,1.7917,1.7975,1.7984,1.7996,1.8,1.8002,1.7999,1.7955,1.799,1.799,1.799,1.7991,1.7991,0,1.7066,1.7116,1.7176,1.726,1.7312,1.7339,1.7409,1.7451,1.7514,1.7579,1.7638,1.7721,1.7791,1.7864,1.7939,1.7971,1.799,1.7989,1.7988,1.7999,1.7986,1.7972,1.7973,1.7973,1.7973,1.7973,1.7973,1.7973,1.708,1.7145,1.7183,1.7275,1.7325,1.7395,1.7433,1.7485,1.7538,1.7627,1.7685,1.7731,1.78,1.788,1.7947,1.7966,1.7992,1.7987,1.8011,1.7998,1.7999,1.8,1.7987,1.7991,1.7991,1.8019,1.8019,1.8019]}]]